513  
ASUS44 KSHV 270410  
RWRSHV  
 
WEATHER ROUNDUP FOR THE FOUR STATE AREA  
NATIONAL WEATHER SERVICE SHREVEPORT LA  
1100 PM CDT WED JUL 26 2017  
 
NOTE: "FAIR" INDICATES FEW OR NO CLOUDS BELOW 12000 FEET  
WITH NO SIGNIFICANT WEATHER AND/OR S TO VISIBILITY
.  
 
!LAZ001-LAZ014-TXZ097-270500  
SHREVEPORT...MONROE...TEXARKANA RADIOS  
 
CITY SKY/WX TMP DP RH WIND PRES REMARKS
 
SHREVEPORT PTCLDY 83 75 77 S7 30.03S  
MONROE PTCLDY 81 73 76 S5 30.06R  
NATCHITOCHES CLEAR 78 77 97 S3 30.06S  
TEXARKANA PTCLDY 82 72 71 S7 30.02S  

 
 
!LAZ001-LAZ014-TXZ097-270500  
OTHER LOCATIONS...  
 
CITY SKY/WX TMP DP RH WIND PRES REMARKS
 
DOWNTOWN SHV PTCLDY 88 73 61 S7 30.03S  
BOSSIER CITY PTCLDY 80 74 82 SE7 30.03S  
RUSTON CLEAR 77 73 86 CALM 30.09S  
LITTLE ROCK CLOUDY 81 77 88 S8 30.01F  
EL DORADO CLEAR 79 77 94 CALM 30.05S  
JACKSON CLEAR 75 72 90 CALM 30.08S  
NEW ORLEANS PTCLDY 82 74 76 S5 30.07R  
HOUSTON PTCLDY 84 73 69 S6 30.05R  
LUFKIN CLEAR 79 73 82 SE6 30.05S  
TYLER CLEAR 85 73 67 S7 30.04R  
DAL FT WORTH CLOUDY 90 71 53 SE15 29.97S  

 
 
!TXZ136-TXZ165-270500  
TYLER...LUFKIN RADIOS  
 
CITY SKY/WX TMP DP RH WIND PRES REMARKS
 
TYLER CLEAR 85 73 67 S7 30.04R  
GILMER PTCLDY 83 73 72 S3 30.03F  
LONGVIEW PTCLDY 80 76 87 S7 30.03S  
LUFKIN CLEAR 79 73 82 SE6 30.05S  

 
 
!TXZ136-TXZ165-270500  
OTHER LOCATIONS...  
 
CITY SKY/WX TMP DP RH WIND PRES REMARKS
 
NACOGDOCHES CLEAR 81 73 78 CALM 30.04R  
BEAUMONT CLEAR 76 74 93 S6 30.05F  
HOUSTON PTCLDY 84 73 69 S6 30.05R  
COLLEGE STN CLEAR 84 73 69 S10 30.03R  
AUSTIN PTCLDY 81 72 74 S7 30.04R  
DAL FT WORTH CLOUDY 90 71 53 SE15 29.97S  
TEXARKANA PTCLDY 82 72 71 S7 30.02S  
SHREVEPORT PTCLDY 83 75 77 S7 30.03S  
FORT POLK CLEAR 80 75 84 S3 30.07R  
LAKE CHARLES CLEAR 80 76 87 S3 30.07R  

 
 
 
CLICK HERE TO GO TO PREVIOUS BULLETINS.

The Nexlab LA Page
The Nexlab TX Page
The Nexlab AR Page
The Nexlab OK Page Main Text Page